| time (UTC) | temp F | wind direction | speed knots | gust knots | rain 1hr in | rain 24hr in | rain mn in | humidity % | barometer mb |
| 20260510113030 | 51 | 115 | 1.7 | 7.8 | 0.00 | 0.00 | 0.00 | 79 | 1018.9 |
| 20260510112526 | 51 | 89 | 0.9 | 5.2 | 0.00 | 0.00 | 0.00 | 80 | 1018.9 |
| 20260510112022 | 51 | 41 | 0.9 | 3.5 | 0.00 | 0.00 | 0.00 | 80 | 1018.9 |
| 20260510111519 | 51 | 337 | 0.9 | 5.2 | 0.00 | 0.00 | 0.00 | 80 | 1018.9 |
| 20260510111015 | 51 | 98 | 1.7 | 2.6 | 0.00 | 0.00 | 0.00 | 80 | 1018.9 |
| 20260510110511 | 51 | 101 | 0.9 | 5.2 | 0.00 | 0.00 | 0.00 | 80 | 1018.5 |
| 20260510110008 | 51 | 341 | 0.9 | 7.0 | 0.00 | 0.00 | 0.00 | 80 | 1018.9 |
| 20260510105503 | 51 | 313 | 3.5 | 7.8 | 0.00 | 0.00 | 0.00 | 80 | 1018.9 |
| 20260510104958 | 51 | 106 | 0.9 | 3.5 | 0.00 | 0.00 | 0.00 | 80 | 1018.9 |
| 20260510104455 | 51 | 40 | 1.7 | 2.6 | 0.00 | 0.00 | 0.00 | 81 | 1018.9 |
| 20260510103951 | 51 | 97 | 0.0 | 1.7 | 0.00 | 0.00 | 0.00 | 81 | 1018.9 |
| 20260510103449 | 51 | 16 | 0.9 | 3.5 | 0.00 | 0.00 | 0.00 | 81 | 1018.5 |
| 20260510102944 | 51 | 283 | 1.7 | 2.6 | 0.00 | 0.00 | 0.00 | 82 | 1018.5 |
| 20260510102440 | 51 | 34 | 0.0 | 1.7 | 0.00 | 0.00 | 0.00 | 81 | 1018.5 |
| 20260510101937 | 51 | 12 | 0.9 | 1.7 | 0.00 | 0.00 | 0.00 | 81 | 1018.5 |
| 20260510101435 | 51 | 91 | 0.9 | 1.7 | 0.00 | 0.00 | 0.00 | 81 | 1018.9 |
| 20260510100933 | 51 | 51 | 1.7 | 6.1 | 0.00 | 0.00 | 0.00 | 81 | 1018.5 |
| 20260510100429 | 51 | 351 | 2.6 | 5.2 | 0.00 | 0.00 | 0.00 | 81 | 1018.5 |
| 20260510095925 | 51 | 101 | 0.9 | 1.7 | 0.00 | 0.00 | 0.00 | 81 | 1018.9 |
| 20260510095421 | 51 | 32 | 1.7 | 6.1 | 0.00 | 0.00 | 0.00 | 81 | 1018.9 |
| 20260510094920 | 51 | 221 | 2.6 | 3.5 | 0.00 | 0.00 | 0.00 | 81 | 1018.9 |
| 20260510094415 | 51 | 352 | 1.7 | 2.6 | 0.00 | 0.00 | 0.00 | 81 | 1018.9 |
| 20260510093911 | 51 | 312 | 0.9 | 1.7 | 0.00 | 0.00 | 0.00 | 81 | 1018.9 |
| 20260510093407 | 51 | 225 | 0.9 | 3.5 | 0.00 | 0.00 | 0.00 | 81 | 1018.9 |
| 20260510092904 | 51 | 268 | 2.6 | 5.2 | 0.00 | 0.00 | 0.00 | 81 | 1018.9 |
| 20260510092401 | 51 | 315 | 0.0 | 2.6 | 0.00 | 0.00 | 0.00 | 81 | 1018.9 |
| 20260510091855 | 52 | 68 | 1.7 | 1.7 | 0.00 | 0.00 | 0.00 | 81 | 1018.9 |
| 20260510091353 | 52 | 61 | 0.9 | 6.1 | 0.00 | 0.00 | 0.00 | 80 | 1018.9 |
| 20260510090849 | 52 | 73 | 1.7 | 2.6 | 0.00 | 0.00 | 0.00 | 81 | 1018.9 |
| 20260510090346 | 52 | 211 | 0.9 | 3.5 | 0.00 | 0.00 | 0.00 | 81 | 1018.5 |
| 20260510085841 | 52 | 304 | 0.9 | 3.5 | 0.00 | 0.00 | 0.00 | 81 | 1018.9 |
| 20260510085336 | 52 | 336 | 1.7 | 3.5 | 0.00 | 0.00 | 0.00 | 81 | 1018.5 |
| 20260510084832 | 52 | 12 | 0.9 | 2.6 | 0.00 | 0.00 | 0.00 | 81 | 1018.9 |
| 20260510084330 | 52 | 85 | 0.9 | 3.5 | 0.00 | 0.00 | 0.00 | 81 | 1018.9 |
| 20260510083826 | 52 | 316 | 1.7 | 2.6 | 0.00 | 0.00 | 0.00 | 81 | 1018.9 |
| 20260510083323 | 52 | 15 | 0.9 | 5.2 | 0.00 | 0.00 | 0.00 | 81 | 1018.9 |
| 20260510082818 | 52 | 134 | 0.9 | 1.7 | 0.00 | 0.00 | 0.00 | 82 | 1018.5 |
| 20260510082316 | 52 | 358 | 3.5 | 3.5 | 0.00 | 0.00 | 0.00 | 82 | 1018.5 |
| 20260510081815 | 52 | 59 | 2.6 | 5.2 | 0.00 | 0.00 | 0.00 | 82 | 1018.5 |
| 20260510081310 | 52 | 114 | 0.9 | 5.2 | 0.00 | 0.00 | 0.00 | 83 | 1018.5 |
| 20260510080807 | 52 | 88 | 1.7 | 1.7 | 0.00 | 0.00 | 0.00 | 83 | 1018.9 |
| 20260510080302 | 52 | 337 | 1.7 | 7.0 | 0.00 | 0.00 | 0.00 | 83 | 1018.5 |
| 20260510075759 | 52 | 101 | 0.9 | 2.6 | 0.00 | 0.00 | 0.00 | 83 | 1018.9 |
| 20260510075256 | 52 | 88 | 0.9 | 5.2 | 0.00 | 0.00 | 0.00 | 83 | 1018.5 |
| 20260510074753 | 52 | 359 | 1.7 | 2.6 | 0.00 | 0.00 | 0.00 | 83 | 1018.5 |
| 20260510074250 | 52 | 53 | 0.9 | 0.9 | 0.00 | 0.00 | 0.00 | 83 | 1018.5 |
| 20260510073746 | 52 | 20 | 0.9 | 3.5 | 0.00 | 0.00 | 0.00 | 82 | 1018.9 |
| 20260510073242 | 52 | 129 | 0.0 | 7.8 | 0.00 | 0.00 | 0.00 | 82 | 1018.5 |
| 20260510072737 | 52 | 273 | 5.2 | 7.8 | 0.00 | 0.00 | 0.00 | 82 | 1018.9 |
| 20260510072235 | 52 | 69 | 0.9 | 2.6 | 0.00 | 0.00 | 0.00 | 82 | 1018.9 |
| 20260510071731 | 52 | 70 | 1.7 | 7.0 | 0.00 | 0.00 | 0.00 | 82 | 1018.9 |
| 20260510071228 | 52 | 82 | 0.0 | 3.5 | 0.00 | 0.00 | 0.00 | 82 | 1018.9 |
| 20260510070726 | 52 | 4 | 0.9 | 2.6 | 0.00 | 0.00 | 0.00 | 82 | 1018.9 |
| 20260510070223 | 52 | 1 | 2.6 | 3.5 | 0.00 | 0.00 | 0.00 | 82 | 1018.9 |
| 20260510065718 | 52 | 72 | 1.7 | 3.5 | 0.00 | 0.00 | 0.00 | 82 | 1018.9 |
| 20260510065215 | 52 | 78 | 0.9 | 2.6 | 0.00 | 0.00 | 0.00 | 81 | 1018.9 |
| 20260510064711 | 52 | 207 | 0.9 | 2.6 | 0.00 | 0.00 | 0.00 | 81 | 1018.9 |
| 20260510064209 | 52 | 126 | 0.9 | 2.6 | 0.00 | 0.00 | 0.00 | 81 | 1018.9 |
| 20260510063705 | 52 | 338 | 2.6 | 3.5 | 0.00 | 0.00 | 0.00 | 81 | 1018.9 |
| 20260510063201 | 52 | 116 | 0.0 | 0.9 | 0.00 | 0.00 | 0.00 | 82 | 1018.9 |
| 20260510062658 | 52 | 99 | 0.0 | 3.5 | 0.00 | 0.00 | 0.00 | 82 | 1018.9 |
| 20260510062154 | 52 | 288 | 2.6 | 3.5 | 0.00 | 0.00 | 0.00 | 82 | 1018.9 |
| 20260510061649 | 52 | 79 | 0.0 | 0.9 | 0.00 | 0.00 | 0.00 | 82 | 1018.5 |
| 20260510061147 | 52 | 186 | 0.9 | 1.7 | 0.00 | 0.00 | 0.00 | 82 | 1018.9 |
| 20260510060643 | 52 | 268 | 1.7 | 3.5 | 0.00 | 0.00 | 0.00 | 82 | 1018.9 |
| 20260510060140 | 52 | 53 | 0.9 | 1.7 | 0.00 | 0.00 | 0.00 | 82 | 1018.9 |
| 20260510055636 | 52 | 110 | 0.0 | 1.7 | 0.00 | 0.00 | 0.00 | 82 | 1018.9 |
| 20260510055134 | 52 | 105 | 0.9 | 3.5 | 0.00 | 0.00 | 0.00 | 82 | 1018.9 |
| 20260510054630 | 52 | 292 | 1.7 | 2.6 | 0.00 | 0.00 | 0.00 | 82 | 1018.9 |
| 20260510054125 | 52 | 73 | 0.9 | 1.7 | 0.00 | 0.00 | 0.00 | 82 | 1018.9 |
| 20260510053625 | 52 | 240 | 0.9 | 3.5 | 0.00 | 0.00 | 0.00 | 82 | 1018.9 |
| 20260510053121 | 52 | 112 | 0.0 | 1.7 | 0.00 | 0.00 | 0.00 | 82 | 1018.9 |
| 20260510052617 | 52 | 79 | 1.7 | 2.6 | 0.00 | 0.00 | 0.00 | 83 | 1018.9 |
| 20260510052114 | 52 | 97 | 0.9 | 2.6 | 0.00 | 0.00 | 0.00 | 83 | 1018.9 |
| 20260510051609 | 52 | 170 | 1.7 | 5.2 | 0.00 | 0.00 | 0.00 | 82 | 1019.2 |
| 20260510051106 | 53 | 94 | 0.0 | 3.5 | 0.00 | 0.00 | 0.00 | 82 | 1019.2 |
| 20260510050604 | 53 | 12 | 1.7 | 2.6 | 0.00 | 0.00 | 0.00 | 82 | 1019.2 |
| 20260510050100 | 53 | 58 | 0.9 | 2.6 | 0.00 | 0.00 | 0.00 | 82 | 1018.9 |
| 20260510045558 | 53 | 13 | 1.7 | 1.7 | 0.00 | 0.00 | 0.00 | 82 | 1019.2 |
| 20260510045053 | 53 | 321 | 0.0 | 1.7 | 0.00 | 0.00 | 0.00 | 81 | 1019.2 |
| 20260510044550 | 54 | 345 | 0.9 | 6.1 | 0.00 | 0.00 | 0.00 | 80 | 1019.2 |
| 20260510044048 | 55 | 72 | 0.9 | 5.2 | 0.00 | 0.00 | 0.00 | 79 | 1018.9 |
| 20260510043543 | 56 | 59 | 1.7 | 3.5 | 0.00 | 0.00 | 0.00 | 75 | 1019.2 |
| 20260510043039 | 55 | 61 | 0.9 | 1.7 | 0.00 | 0.00 | 0.00 | 75 | 1019.2 |
| 20260510042533 | 55 | 137 | 0.0 | 0.0 | 0.00 | 0.00 | 0.00 | 78 | 1019.2 |
| 20260510042028 | 56 | 120 | 0.0 | 0.0 | 0.00 | 0.00 | 0.00 | 77 | 1019.2 |
| 20260510041526 | 56 | 125 | 0.0 | 0.0 | 0.00 | 0.00 | 0.00 | 77 | 1019.2 |
| 20260510041023 | 57 | 116 | 0.0 | 0.0 | 0.00 | 0.00 | 0.00 | 75 | 1018.9 |
| 20260510040520 | 57 | 125 | 0.0 | 0.0 | 0.00 | 0.00 | 0.00 | 74 | 1018.9 |
| 20260510040015 | 58 | 111 | 0.0 | 0.0 | 0.00 | 0.00 | 0.00 | 73 | 1018.9 |
| 20260510035512 | 58 | 112 | 0.0 | 0.0 | 0.00 | 0.00 | 0.00 | 72 | 1018.9 |
| 20260510035011 | 59 | 115 | 0.0 | 0.0 | 0.00 | 0.00 | 0.00 | 71 | 1018.9 |
| 20260510034510 | 59 | 115 | 0.0 | 0.0 | 0.00 | 0.00 | 0.00 | 70 | 1018.9 |
| 20260510034006 | 59 | 114 | 0.0 | 0.0 | 0.00 | 0.00 | 0.00 | 70 | 1018.9 |
| 20260510033502 | 60 | 114 | 0.0 | 0.0 | 0.00 | 0.00 | 0.00 | 68 | 1018.9 |
| 20260510033000 | 60 | 118 | 0.0 | 0.0 | 0.00 | 0.00 | 0.00 | 68 | 1018.9 |
| 20260510032456 | 61 | 118 | 0.0 | 0.0 | 0.00 | 0.00 | 0.00 | 67 | 1018.9 |
| 20260510031951 | 61 | 118 | 0.0 | 0.0 | 0.00 | 0.00 | 0.00 | 67 | 1018.9 |
| 20260510031447 | 61 | 116 | 0.0 | 0.0 | 0.00 | 0.00 | 0.00 | 66 | 1018.9 |
| 20260510030943 | 61 | 103 | 0.0 | 0.0 | 0.00 | 0.00 | 0.00 | 65 | 1018.9 |
| 20260510030438 | 62 | 103 | 0.0 | 0.0 | 0.00 | 0.00 | 0.00 | 66 | 1018.9 |
| 20260510025936 | 62 | 103 | 0.0 | 0.0 | 0.00 | 0.00 | 0.00 | 64 | 1018.5 |
| 20260510025433 | 62 | 113 | 0.0 | 0.0 | 0.00 | 0.00 | 0.00 | 64 | 1018.9 |
| 20260510024930 | 62 | 116 | 0.0 | 0.0 | 0.00 | 0.00 | 0.00 | 64 | 1018.9 |
| 20260510024427 | 62 | 124 | 0.0 | 1.7 | 0.00 | 0.00 | 0.00 | 64 | 1018.9 |
| 20260510023923 | 62 | 130 | 0.0 | 0.9 | 0.00 | 0.00 | 0.00 | 62 | 1018.9 |
| 20260510023419 | 62 | 181 | 0.0 | 0.9 | 0.00 | 0.00 | 0.00 | 64 | 1018.9 |
| 20260510022917 | 62 | 186 | 1.7 | 2.6 | 0.00 | 0.00 | 0.00 | 63 | 1018.9 |
| 20260510022415 | 62 | 172 | 0.9 | 1.7 | 0.00 | 0.00 | 0.00 | 64 | 1019.2 |
| 20260510021914 | 62 | 117 | 0.0 | 1.7 | 0.00 | 0.00 | 0.00 | 64 | 1019.2 |
| 20260510021413 | 63 | 116 | 0.9 | 0.9 | 0.00 | 0.00 | 0.00 | 63 | 1018.9 |
| 20260510020909 | 63 | 160 | 0.9 | 0.9 | 0.00 | 0.00 | 0.00 | 62 | 1018.9 |
| 20260510020404 | 63 | 129 | 0.0 | 1.7 | 0.00 | 0.00 | 0.00 | 61 | 1019.2 |
| 20260510015900 | 63 | 130 | 0.0 | 0.9 | 0.00 | 0.00 | 0.00 | 61 | 1019.2 |
| 20260510015356 | 63 | 119 | 0.0 | 1.7 | 0.00 | 0.00 | 0.00 | 61 | 1019.2 |
| 20260510014851 | 64 | 100 | 0.9 | 0.9 | 0.00 | 0.00 | 0.00 | 61 | 1019.6 |
| 20260510014349 | 64 | 128 | 0.0 | 0.0 | 0.00 | 0.00 | 0.00 | 57 | 1019.6 |
| 20260510013845 | 64 | 118 | 0.0 | 0.0 | 0.00 | 0.00 | 0.00 | 59 | 1019.6 |
| 20260510013340 | 65 | 111 | 0.9 | 0.9 | 0.00 | 0.00 | 0.00 | 57 | 1019.6 |
| 20260510012836 | 66 | 162 | 0.9 | 1.7 | 0.00 | 0.00 | 0.00 | 55 | 1019.9 |
| 20260510012335 | 65 | 127 | 0.0 | 0.0 | 0.00 | 0.00 | 0.00 | 59 | 1019.9 |
| 20260510011831 | 64 | 122 | 0.0 | 0.0 | 0.00 | 0.00 | 0.00 | 60 | 1020.2 |
| 20260510011326 | 64 | 132 | 0.0 | 0.9 | 0.00 | 0.00 | 0.00 | 59 | 1020.2 |
| 20260510010823 | 64 | 122 | 0.0 | 0.0 | 0.00 | 0.00 | 0.00 | 59 | 1020.2 |
| 20260510010320 | 63 | 156 | 0.0 | 0.9 | 0.00 | 0.00 | 0.00 | 60 | 1020.2 |
| 20260510005817 | 63 | 146 | 0.0 | 2.6 | 0.00 | 0.00 | 0.00 | 61 | 1020.2 |
| 20260510005313 | 64 | 181 | 0.9 | 1.7 | 0.00 | 0.00 | 0.00 | 60 | 1020.2 |
| 20260510004811 | 62 | 133 | 0.0 | 1.7 | 0.00 | 0.00 | 0.00 | 62 | 1020.2 |
| 20260510004308 | 63 | 71 | 0.9 | 1.7 | 0.00 | 0.00 | 0.00 | 61 | 1020.2 |
| 20260510003805 | 63 | 224 | 0.9 | 0.9 | 0.00 | 0.00 | 0.00 | 62 | 1020.2 |
| 20260510003302 | 62 | 66 | 0.9 | 1.7 | 0.00 | 0.00 | 0.00 | 61 | 1020.6 |
| 20260510002801 | 62 | 211 | 0.9 | 1.7 | 0.00 | 0.00 | 0.00 | 62 | 1020.6 |
| 20260510002259 | 63 | 156 | 0.0 | 0.9 | 0.00 | 0.00 | 0.00 | 61 | 1020.6 |
| 20260510001755 | 64 | 206 | 0.9 | 0.9 | 0.00 | 0.00 | 0.00 | 61 | 1020.6 |
| 20260510001253 | 64 | 121 | 0.9 | 0.9 | 0.00 | 0.00 | 0.00 | 60 | 1020.6 |
| 20260510000748 | 64 | 121 | 0.0 | 0.9 | 0.00 | 0.00 | 0.00 | 59 | 1020.6 |
| 20260510000248 | 63 | 110 | 0.0 | 0.9 | 0.00 | 0.00 | 0.00 | 61 | 1020.6 |
| 20260509235744 | 64 | 150 | 0.9 | 0.9 | 0.00 | 0.00 | 0.00 | 61 | 1020.9 |
| 20260509235240 | 63 | 296 | 1.7 | 1.7 | 0.00 | 0.00 | 0.00 | 60 | 1020.9 |
| 20260509234735 | 63 | 87 | 1.7 | 1.7 | 0.00 | 0.00 | 0.00 | 61 | 1020.9 |
| 20260509234227 | 64 | 105 | 0.0 | 0.9 | 0.00 | 0.00 | 0.00 | 61 | 1020.9 |
| 20260509233725 | 63 | 88 | 0.9 | 1.7 | 0.00 | 0.00 | 0.00 | 61 | 1021.3 |
| 20260509233223 | 62 | 93 | 0.9 | 1.7 | 0.00 | 0.00 | 0.00 | 62 | 1020.9 |
| 20260509232718 | 62 | 124 | 0.9 | 3.5 | 0.00 | 0.00 | 0.00 | 62 | 1021.3 |
| 20260509232216 | 63 | 61 | 1.7 | 1.7 | 0.00 | 0.00 | 0.00 | 60 | 1021.3 |
| 20260509231712 | 64 | 264 | 0.9 | 3.5 | 0.00 | 0.00 | 0.00 | 60 | 1021.3 |
| 20260509231209 | 65 | 111 | 0.0 | 0.0 | 0.00 | 0.00 | 0.00 | 58 | 1021.3 |
| 20260509230706 | 63 | 109 | 0.9 | 2.6 | 0.00 | 0.00 | 0.00 | 60 | 1021.3 |
| 20260509230157 | 63 | 331 | 0.9 | 2.6 | 0.00 | 0.00 | 0.00 | 63 | 1021.3 |
| 20260509225653 | 63 | 81 | 0.9 | 1.7 | 0.00 | 0.00 | 0.00 | 64 | 1021.3 |
| 20260509225149 | 63 | 340 | 1.7 | 2.6 | 0.00 | 0.00 | 0.00 | 63 | 1021.6 |
| 20260509224645 | 62 | 43 | 0.9 | 1.7 | 0.00 | 0.00 | 0.00 | 65 | 1021.6 |
| 20260509224142 | 62 | 99 | 0.9 | 1.7 | 0.00 | 0.00 | 0.00 | 65 | 1021.6 |
| 20260509223639 | 63 | 6 | 1.7 | 3.5 | 0.00 | 0.00 | 0.00 | 64 | 1021.6 |
| 20260509223136 | 62 | 113 | 0.0 | 1.7 | 0.00 | 0.00 | 0.00 | 68 | 1021.9 |
| 20260509222633 | 61 | 106 | 0.0 | 1.7 | 0.00 | 0.00 | 0.00 | 69 | 1021.9 |
| 20260509222128 | 61 | 89 | 0.9 | 2.6 | 0.00 | 0.00 | 0.00 | 68 | 1022.3 |
| 20260509221624 | 62 | 8 | 1.7 | 2.6 | 0.00 | 0.00 | 0.00 | 67 | 1022.3 |
| 20260509221120 | 61 | 63 | 0.0 | 2.6 | 0.00 | 0.00 | 0.00 | 68 | 1022.3 |
| 20260509220616 | 61 | 100 | 1.7 | 3.5 | 0.00 | 0.00 | 0.00 | 69 | 1022.3 |
| 20260509220113 | 60 | 54 | 1.7 | 5.2 | 0.00 | 0.00 | 0.00 | 70 | 1022.3 |
| 20260509215609 | 61 | 88 | 0.9 | 2.6 | 0.00 | 0.00 | 0.00 | 68 | 1022.3 |
| 20260509215106 | 62 | 273 | 1.7 | 2.6 | 0.00 | 0.00 | 0.00 | 68 | 1022.3 |
| 20260509214603 | 62 | 30 | 0.9 | 2.6 | 0.00 | 0.00 | 0.00 | 68 | 1022.3 |
| 20260509214100 | 63 | 57 | 1.7 | 2.6 | 0.00 | 0.00 | 0.00 | 66 | 1022.3 |
| 20260509213555 | 62 | 346 | 1.7 | 6.1 | 0.00 | 0.00 | 0.00 | 67 | 1022.3 |
| 20260509213052 | 64 | 307 | 1.7 | 1.7 | 0.00 | 0.00 | 0.00 | 63 | 1022.3 |
| 20260509212550 | 63 | 89 | 0.9 | 1.7 | 0.00 | 0.00 | 0.00 | 66 | 1022.3 |
| 20260509212046 | 62 | 312 | 1.7 | 2.6 | 0.00 | 0.00 | 0.00 | 67 | 1022.6 |
| 20260509211542 | 62 | 119 | 1.7 | 6.1 | 0.00 | 0.00 | 0.00 | 68 | 1022.6 |
| 20260509211039 | 61 | 152 | 1.7 | 2.6 | 0.00 | 0.00 | 0.00 | 69 | 1022.6 |
| 20260509210535 | 62 | 107 | 0.0 | 2.6 | 0.00 | 0.00 | 0.00 | 67 | 1022.6 |
| 20260509210031 | 61 | 99 | 0.9 | 2.6 | 0.00 | 0.00 | 0.00 | 68 | 1022.6 |
| 20260509205526 | 62 | 16 | 1.7 | 2.6 | 0.00 | 0.00 | 0.00 | 67 | 1022.9 |
| 20260509205022 | 62 | 102 | 0.9 | 3.5 | 0.00 | 0.00 | 0.00 | 68 | 1022.9 |
| 20260509204519 | 61 | 174 | 0.0 | 5.2 | 0.00 | 0.00 | 0.00 | 68 | 1022.6 |
| 20260509204015 | 62 | 40 | 1.7 | 3.5 | 0.00 | 0.00 | 0.00 | 67 | 1022.9 |
| 20260509203511 | 62 | 71 | 1.7 | 2.6 | 0.00 | 0.00 | 0.00 | 66 | 1022.9 |
| 20260509203009 | 63 | 54 | 0.9 | 1.7 | 0.00 | 0.00 | 0.00 | 65 | 1022.6 |
| 20260509202503 | 63 | 88 | 1.7 | 3.5 | 0.00 | 0.00 | 0.00 | 64 | 1022.9 |
| 20260509201959 | 63 | 47 | 1.7 | 1.7 | 0.00 | 0.00 | 0.00 | 63 | 1022.6 |
| 20260509201454 | 63 | 69 | 0.9 | 2.6 | 0.00 | 0.00 | 0.00 | 65 | 1022.6 |
| 20260509200952 | 63 | 76 | 1.7 | 1.7 | 0.00 | 0.00 | 0.00 | 65 | 1022.6 |
| 20260509200447 | 64 | 42 | 1.7 | 2.6 | 0.00 | 0.00 | 0.00 | 63 | 1022.9 |
| 20260509195943 | 63 | 112 | 0.9 | 1.7 | 0.00 | 0.00 | 0.00 | 66 | 1022.9 |
| 20260509195439 | 63 | 50 | 0.0 | 0.9 | 0.00 | 0.00 | 0.00 | 65 | 1022.9 |
| 20260509194938 | 62 | 61 | 1.7 | 1.7 | 0.00 | 0.00 | 0.00 | 68 | 1022.9 |
| 20260509194434 | 63 | 48 | 0.9 | 3.5 | 0.00 | 0.00 | 0.00 | 68 | 1022.9 |
| 20260509193931 | 63 | 45 | 3.5 | 3.5 | 0.00 | 0.00 | 0.00 | 66 | 1022.9 |
| 20260509193431 | 63 | 53 | 0.9 | 2.6 | 0.00 | 0.00 | 0.00 | 67 | 1022.9 |
| 20260509192927 | 63 | 101 | 0.0 | 0.9 | 0.00 | 0.00 | 0.00 | 67 | 1022.9 |
| 20260509192424 | 63 | 113 | 0.9 | 2.6 | 0.00 | 0.00 | 0.00 | 67 | 1022.9 |
| 20260509191919 | 65 | 88 | 0.0 | 1.7 | 0.00 | 0.00 | 0.00 | 63 | 1023.3 |
| 20260509191414 | 64 | 101 | 0.9 | 2.6 | 0.00 | 0.00 | 0.00 | 61 | 1023.3 |
| 20260509190911 | 64 | 105 | 0.0 | 3.5 | 0.00 | 0.00 | 0.00 | 63 | 1023.3 |
| 20260509190408 | 65 | 73 | 0.9 | 2.6 | 0.00 | 0.00 | 0.00 | 61 | 1023.3 |
| 20260509185906 | 63 | 118 | 1.7 | 5.2 | 0.00 | 0.00 | 0.00 | 63 | 1023.3 |
| 20260509185403 | 64 | 177 | 4.3 | 5.2 | 0.00 | 0.00 | 0.00 | 62 | 1023.6 |
| 20260509184859 | 63 | 107 | 0.0 | 3.5 | 0.00 | 0.00 | 0.00 | 66 | 1023.3 |
| 20260509184356 | 64 | 113 | 2.6 | 2.6 | 0.00 | 0.00 | 0.00 | 64 | 1023.3 |
| 20260509183854 | 62 | 68 | 0.0 | 1.7 | 0.00 | 0.00 | 0.00 | 69 | 1023.3 |
| 20260509183348 | 61 | 100 | 0.0 | 2.6 | 0.00 | 0.00 | 0.00 | 70 | 1023.3 |
| 20260509182844 | 63 | 102 | 0.9 | 1.7 | 0.00 | 0.00 | 0.00 | 68 | 1023.3 |
| 20260509182342 | 63 | 105 | 1.7 | 2.6 | 0.00 | 0.00 | 0.00 | 66 | 1023.3 |
| 20260509181839 | 63 | 158 | 0.9 | 2.6 | 0.00 | 0.00 | 0.00 | 66 | 1023.3 |
| 20260509181336 | 63 | 154 | 2.6 | 3.5 | 0.00 | 0.00 | 0.00 | 67 | 1023.6 |
| 20260509180833 | 61 | 141 | 0.0 | 1.7 | 0.00 | 0.00 | 0.00 | 67 | 1023.6 |
| 20260509180329 | 63 | 111 | 0.9 | 1.7 | 0.00 | 0.00 | 0.00 | 67 | 1023.6 |
| 20260509175826 | 62 | 107 | 1.7 | 3.5 | 0.00 | 0.00 | 0.00 | 68 | 1023.6 |
| 20260509175322 | 62 | 192 | 3.5 | 5.2 | 0.00 | 0.00 | 0.00 | 67 | 1023.6 |
| 20260509174818 | 62 | 104 | 0.9 | 3.5 | 0.00 | 0.00 | 0.00 | 68 | 1023.3 |
| 20260509174314 | 62 | 143 | 0.9 | 3.5 | 0.00 | 0.00 | 0.00 | 68 | 1023.6 |
| 20260509173810 | 62 | 91 | 0.0 | 0.9 | 0.00 | 0.00 | 0.00 | 67 | 1023.6 |
| 20260509173306 | 61 | 190 | 0.0 | 2.6 | 0.00 | 0.00 | 0.00 | 70 | 1023.6 |
| 20260509172802 | 60 | 94 | 1.7 | 2.6 | 0.00 | 0.00 | 0.00 | 70 | 1023.6 |
| 20260509172259 | 60 | 197 | 2.6 | 2.6 | 0.00 | 0.00 | 0.00 | 70 | 1023.6 |
| 20260509171755 | 60 | 169 | 0.9 | 3.5 | 0.00 | 0.00 | 0.00 | 70 | 1023.6 |
| 20260509171251 | 60 | 108 | 0.9 | 0.9 | 0.00 | 0.00 | 0.00 | 70 | 1023.6 |
| 20260509170747 | 60 | 107 | 0.9 | 5.2 | 0.00 | 0.00 | 0.00 | 70 | 1023.6 |
| 20260509170243 | 59 | 101 | 0.9 | 1.7 | 0.00 | 0.00 | 0.00 | 70 | 1024.0 |
| 20260509165742 | 59 | 101 | 1.7 | 2.6 | 0.00 | 0.00 | 0.00 | 71 | 1024.0 |
| 20260509165238 | 58 | 173 | 2.6 | 3.5 | 0.00 | 0.00 | 0.00 | 71 | 1023.6 |
| 20260509164734 | 57 | 164 | 0.9 | 2.6 | 0.00 | 0.00 | 0.00 | 72 | 1023.6 |
| 20260509164229 | 57 | 100 | 0.0 | 0.9 | 0.00 | 0.00 | 0.00 | 74 | 1023.6 |
| 20260509163727 | 57 | 190 | 1.7 | 2.6 | 0.00 | 0.00 | 0.00 | 73 | 1023.6 |
| 20260509163223 | 57 | 126 | 0.0 | 0.0 | 0.00 | 0.00 | 0.00 | 73 | 1024.0 |
| 20260509162721 | 56 | 111 | 1.7 | 3.5 | 0.00 | 0.00 | 0.00 | 74 | 1023.6 |
| 20260509162216 | 57 | 67 | 0.0 | 0.9 | 0.00 | 0.00 | 0.00 | 74 | 1024.0 |
| 20260509161712 | 56 | 104 | 0.0 | 0.9 | 0.00 | 0.00 | 0.00 | 74 | 1024.0 |
| 20260509161209 | 56 | 113 | 0.0 | 0.9 | 0.00 | 0.00 | 0.00 | 75 | 1024.0 |
| 20260509160704 | 56 | 112 | 0.9 | 1.7 | 0.00 | 0.00 | 0.00 | 75 | 1024.0 |
| 20260509160200 | 55 | 101 | 0.9 | 1.7 | 0.00 | 0.00 | 0.00 | 76 | 1024.0 |
| 20260509155656 | 55 | 188 | 2.6 | 2.6 | 0.00 | 0.00 | 0.00 | 76 | 1024.0 |
| 20260509155152 | 55 | 122 | 1.7 | 1.7 | 0.00 | 0.00 | 0.00 | 76 | 1024.0 |
| 20260509154648 | 55 | 111 | 0.0 | 0.0 | 0.00 | 0.00 | 0.00 | 77 | 1024.0 |
| 20260509154146 | 54 | 138 | 0.9 | 2.6 | 0.00 | 0.00 | 0.00 | 77 | 1024.3 |
| 20260509153642 | 54 | 197 | 0.9 | 3.5 | 0.00 | 0.00 | 0.00 | 77 | 1024.3 |
| 20260509153139 | 54 | 151 | 0.9 | 1.7 | 0.00 | 0.00 | 0.00 | 78 | 1024.3 |
| 20260509152634 | 53 | 122 | 0.9 | 1.7 | 0.00 | 0.00 | 0.00 | 78 | 1024.0 |
| 20260509152132 | 53 | 112 | 1.7 | 1.7 | 0.00 | 0.00 | 0.00 | 79 | 1024.0 |
| 20260509151628 | 53 | 169 | 0.9 | 2.6 | 0.00 | 0.00 | 0.00 | 79 | 1024.0 |
| 20260509151126 | 53 | 131 | 0.9 | 1.7 | 0.00 | 0.00 | 0.00 | 80 | 1024.0 |
| 20260509150624 | 53 | 197 | 1.7 | 2.6 | 0.00 | 0.00 | 0.00 | 80 | 1024.0 |
| 20260509150122 | 53 | 100 | 0.0 | 1.7 | 0.00 | 0.00 | 0.00 | 81 | 1024.0 |
| 20260509145617 | 52 | 112 | 0.0 | 0.9 | 0.00 | 0.00 | 0.00 | 82 | 1024.3 |
| 20260509145113 | 52 | 131 | 0.0 | 0.9 | 0.00 | 0.00 | 0.00 | 82 | 1024.3 |
| 20260509144610 | 52 | 125 | 0.9 | 1.7 | 0.00 | 0.00 | 0.00 | 82 | 1024.3 |
| 20260509144107 | 51 | 167 | 1.7 | 2.6 | 0.00 | 0.00 | 0.00 | 82 | 1024.3 |
| 20260509143604 | 51 | 111 | 0.0 | 1.7 | 0.00 | 0.00 | 0.00 | 83 | 1024.3 |
| 20260509143102 | 51 | 115 | 0.0 | 1.7 | 0.00 | 0.00 | 0.00 | 83 | 1024.3 |
| 20260509142556 | 51 | 110 | 0.0 | 0.9 | 0.00 | 0.00 | 0.00 | 83 | 1024.3 |
| 20260509142053 | 51 | 109 | 0.0 | 1.7 | 0.00 | 0.00 | 0.00 | 83 | 1024.3 |
| 20260509141549 | 51 | 106 | 0.0 | 0.0 | 0.00 | 0.00 | 0.00 | 83 | 1024.3 |
| 20260509141046 | 51 | 140 | 0.0 | 0.9 | 0.00 | 0.00 | 0.00 | 83 | 1024.3 |
| 20260509140543 | 51 | 119 | 0.0 | 1.7 | 0.00 | 0.00 | 0.00 | 83 | 1024.3 |
| 20260509140041 | 51 | 121 | 0.0 | 0.9 | 0.00 | 0.00 | 0.00 | 84 | 1024.3 |
| 20260509135538 | 51 | 139 | 0.9 | 0.9 | 0.00 | 0.00 | 0.00 | 85 | 1024.7 |
| 20260509135035 | 50 | 140 | 0.9 | 0.9 | 0.00 | 0.00 | 0.00 | 85 | 1024.7 |
| 20260509134532 | 50 | 117 | 0.0 | 0.0 | 0.00 | 0.00 | 0.00 | 86 | 1024.7 |
| 20260509134030 | 50 | 119 | 0.0 | 0.0 | 0.00 | 0.00 | 0.00 | 86 | 1024.7 |
| 20260509133526 | 50 | 122 | 0.0 | 0.0 | 0.00 | 0.00 | 0.00 | 86 | 1024.7 |
| 20260509133024 | 50 | 116 | 0.0 | 0.0 | 0.00 | 0.00 | 0.00 | 86 | 1024.3 |
| 20260509132522 | 50 | 114 | 0.0 | 0.0 | 0.00 | 0.00 | 0.00 | 86 | 1024.7 |
| 20260509132020 | 50 | 112 | 0.0 | 0.0 | 0.00 | 0.00 | 0.00 | 86 | 1024.3 |
| 20260509131516 | 49 | 112 | 0.0 | 0.0 | 0.00 | 0.00 | 0.00 | 86 | 1024.3 |
| 20260509131013 | 50 | 112 | 0.0 | 0.0 | 0.00 | 0.00 | 0.00 | 86 | 1024.3 |
| 20260509130508 | 49 | 108 | 0.0 | 0.0 | 0.00 | 0.00 | 0.00 | 86 | 1024.7 |
| 20260509130006 | 49 | 120 | 0.0 | 0.0 | 0.00 | 0.00 | 0.00 | 86 | 1024.3 |
| 20260509125502 | 49 | 122 | 0.0 | 0.0 | 0.00 | 0.00 | 0.00 | 86 | 1024.3 |
| 20260509124958 | 49 | 106 | 0.0 | 0.0 | 0.00 | 0.00 | 0.00 | 86 | 1024.7 |
| 20260509124455 | 49 | 108 | 0.0 | 0.0 | 0.00 | 0.00 | 0.00 | 86 | 1024.3 |
| 20260509123952 | 50 | 107 | 0.0 | 0.0 | 0.00 | 0.00 | 0.00 | 86 | 1024.3 |
| 20260509123450 | 50 | 107 | 0.0 | 0.0 | 0.00 | 0.00 | 0.00 | 86 | 1024.3 |
| 20260509122945 | 50 | 113 | 0.0 | 0.0 | 0.00 | 0.00 | 0.00 | 86 | 1024.7 |
| 20260509122443 | 50 | 113 | 0.0 | 0.0 | 0.00 | 0.00 | 0.00 | 86 | 1024.3 |
| 20260509121939 | 50 | 112 | 0.0 | 0.0 | 0.00 | 0.00 | 0.00 | 85 | 1024.7 |
| 20260509121436 | 50 | 115 | 0.0 | 0.0 | 0.00 | 0.00 | 0.00 | 85 | 1024.7 |
| 20260509120934 | 50 | 112 | 0.0 | 0.0 | 0.00 | 0.00 | 0.00 | 85 | 1024.7 |
| 20260509120432 | 50 | 114 | 0.0 | 0.0 | 0.00 | 0.00 | 0.00 | 85 | 1024.7 |
| 20260509115930 | 50 | 112 | 0.0 | 0.0 | 0.00 | 0.00 | 0.00 | 85 | 1024.7 |
| 20260509115427 | 50 | 107 | 0.0 | 0.0 | 0.00 | 0.00 | 0.00 | 84 | 1024.7 |
| 20260509114924 | 50 | 108 | 0.0 | 0.0 | 0.00 | 0.00 | 0.00 | 84 | 1024.7 |
| 20260509114423 | 50 | 121 | 0.0 | 0.0 | 0.00 | 0.00 | 0.00 | 84 | 1024.7 |
| 20260509113922 | 50 | 133 | 0.0 | 0.0 | 0.00 | 0.00 | 0.00 | 84 | 1024.7 |
| 20260509113419 | 50 | 111 | 0.0 | 0.0 | 0.00 | 0.00 | 0.00 | 83 | 1024.7 |